Weather History for La Crosse, WI

Change the Weather History Date:

Tuesday, December 24, 2013

  Actual Average Record
Temperature  
Mean Temperature 0 °F 19 °F  
Max Temperature 11 °F 27 °F 61 °F (1889)
Min Temperature -12 °F 12 °F -37 °F (1872)
Degree Days  
Heating Degree Days 65 46  
Month to date heating degree days 1166 1018  
Since 1 July heating degree days 2570 2518  
Cooling Degree Days 0 0  
Month to date cooling degree days 0 0  
Year to date cooling degree days 917 782  
Moisture  
Dew Point -3 °F    
Average Humidity 75    
Maximum Humidity 86    
Minimum Humidity 63    
Precipitation  
Precipitation 0.19 in 0.03 in 1.21 in (1875)
Month to date precipitation 1.41 1.11  
Year to date precipitation 35.78 32.81  
Snow  
Snow 2.70 in 0.30 in 5.10 in (1977)
Month to date snowfall 11.1 9.1  
Since 1 July snowfall 12.1 13.4  
Snow Depth 6.00 in    
Sea Level Pressure  
Sea Level Pressure 30.41 in    
Wind  
Wind Speed 8 mph (SSE)    
Max Wind Speed 18 mph    
Max Gust Speed 23 mph    
Visibility 6 miles    
Events Snow    
T = Trace of Precipitation, MM = Missing Value Source: NWS Daily Summary

Daily Weather History Graph

Daily Weather History Graph

Search for Another Location

Airport:

Trip Planner

Search our weather history database for the weather conditions in past years. The results will help you decide how hot, cold, wet, or windy it might be!

Date:

Astronomy

Dec. 24, 2013 Rise Set
Actual Time 7:37 AM CST 4:32 PM CST
Civil Twilight 7:04 AM CST 5:05 PM CST
Nautical Twilight 6:28 AM CST 5:41 PM CST
Astronomical Twilight 5:53 AM CST 6:16 PM CST
Moon 11:54 PM CST (12/24) 11:18 AM CST (12/24)
Length of Visible Light 10h 00m
Length of Day
8h 54m
Waning Gibbous, 58% of the Moon is Illuminated
Dec 24
Waning Gibbous
Dec 25
Last Quarter
Jan 1
New
Jan 7
First Quarter
Jan 15
Full

Hourly Weather History & Observations

Time (CST) Temp. Windchill Dew Point Humidity Pressure Visibility Wind Dir Wind Speed Gust Speed Precip Events Conditions
12:53 AM -8.0 °F - -11.9 °F 83% 30.58 in 10.0 mi Calm Calm - N/A   Clear
1:53 AM -8.0 °F - -11.9 °F 83% 30.59 in 10.0 mi Calm Calm - N/A   Clear
2:53 AM -9.0 °F -18.2 °F -13.0 °F 83% 30.61 in 10.0 mi SE 3.5 mph - N/A   Clear
3:53 AM -9.9 °F - -14.1 °F 82% 30.60 in 10.0 mi Calm Calm - N/A   Clear
4:53 AM -11.0 °F -24.6 °F -15.0 °F 83% 30.60 in 10.0 mi SSE 5.8 mph - N/A   Clear
5:20 AM -11.2 °F -24.8 °F -14.8 °F 84% 30.48 in 10.0 mi SSE 5.8 mph - N/A   Mostly Cloudy
5:53 AM -9.9 °F -23.4 °F -15.0 °F 78% 30.59 in 10.0 mi SSE 5.8 mph - N/A   Partly Cloudy
6:19 AM -9.4 °F -26.8 °F -14.8 °F 77% 30.50 in 10.0 mi South 9.2 mph - N/A   Mostly Cloudy
6:53 AM -9.0 °F -26.4 °F -14.1 °F 79% 30.61 in 10.0 mi SSE 9.2 mph - N/A   Overcast
7:02 AM -9.4 °F -26.8 °F -14.8 °F 77% 30.50 in 9.0 mi SSE 9.2 mph - N/A   Overcast
7:20 AM -9.4 °F -27.9 °F -14.8 °F 77% 30.51 in 10.0 mi South 10.4 mph - N/A   Scattered Clouds
7:53 AM -11.0 °F -26.2 °F -16.1 °F 78% 30.63 in 10.0 mi SSE 6.9 mph - N/A   Clear
8:53 AM -9.0 °F -23.8 °F -14.1 °F 79% 30.61 in 10.0 mi South 6.9 mph - N/A   Clear
9:53 AM -7.1 °F -21.4 °F -13.0 °F 75% 30.61 in 10.0 mi SSE 6.9 mph - N/A   Clear
10:32 AM -5.8 °F -19.9 °F -9.4 °F 84% 30.49 in 10.0 mi South 6.9 mph - N/A   Scattered Clouds
10:53 AM -4.0 °F -17.8 °F -9.9 °F 76% 30.59 in 7.0 mi South 6.9 mph - N/A   Scattered Clouds
11:01 AM -2.2 °F -15.6 °F -9.4 °F 71% 30.48 in 9.0 mi South 6.9 mph - N/A   Mostly Cloudy
11:13 AM -2.2 °F -16.8 °F -9.4 °F 71% 30.48 in 10.0 mi South 8.1 mph - N/A   Partly Cloudy
11:53 AM 1.0 °F -11.7 °F -7.1 °F 69% 30.53 in 10.0 mi South 6.9 mph - N/A   Clear
12:53 PM 3.9 °F -9.4 °F -4.0 °F 70% 30.49 in 10.0 mi SSW 8.1 mph - N/A   Clear
1:53 PM 8.1 °F -6.2 °F -2.0 °F 64% 30.48 in 10.0 mi SSE 10.4 mph - N/A   Clear
2:53 PM 10.0 °F -7.6 °F -0.9 °F 61% 30.47 in 10.0 mi South 17.3 mph - N/A   Partly Cloudy
3:53 PM 10.0 °F -4.5 °F -0.9 °F 61% 30.45 in 10.0 mi South 11.5 mph - N/A   Overcast
4:53 PM 10.0 °F -1.9 °F -0.0 °F 64% 30.44 in 10.0 mi South 8.1 mph - N/A   Overcast
5:53 PM 10.0 °F -0.9 °F 1.0 °F 67% 30.41 in 10.0 mi SSE 6.9 mph - N/A   Overcast
6:53 PM 10.0 °F -4.5 °F 3.0 °F 73% 30.39 in 1.8 mi SE 11.5 mph - 0.01 in Snow Light Snow
7:12 PM 10.4 °F -1.5 °F 5.0 °F 79% 30.30 in 1.0 mi SSE 8.1 mph - 0.01 in Snow Light Snow
7:15 PM 10.4 °F -1.5 °F 5.0 °F 79% 30.30 in 0.8 mi SSE 8.1 mph - 0.01 in Snow Light Snow
7:25 PM 10.4 °F -0.4 °F 5.0 °F 79% 30.30 in 1.5 mi South 6.9 mph - 0.02 in Snow Light Snow
7:29 PM 10.4 °F -1.5 °F 5.0 °F 79% 30.31 in 2.0 mi South 8.1 mph - 0.03 in Snow Light Snow
7:46 PM 10.4 °F -2.4 °F 5.0 °F 79% 30.30 in 1.5 mi SSE 9.2 mph - 0.03 in Snow Light Snow
7:53 PM 10.0 °F -2.9 °F 5.0 °F 80% 30.40 in 1.0 mi South 9.2 mph - 0.04 in Snow Light Snow
8:14 PM 8.6 °F -2.6 °F 5.0 °F 85% 30.29 in 0.8 mi SSE 6.9 mph - 0.02 in Snow Light Snow
8:42 PM 8.6 °F -4.7 °F 5.0 °F 85% 30.27 in 1.2 mi SSE 9.2 mph - 0.05 in Snow Light Snow
8:50 PM 8.6 °F -3.7 °F 5.0 °F 85% 30.27 in 0.8 mi South 8.1 mph - 0.06 in Snow Light Snow
8:53 PM 9.0 °F -4.2 °F 5.0 °F 84% 30.36 in 0.8 mi SSE 9.2 mph - 0.07 in Snow Light Snow
9:00 PM 8.6 °F -3.7 °F 5.0 °F 85% 30.26 in 1.0 mi SSE 8.1 mph - 0.01 in Snow Light Snow
9:24 PM 8.6 °F -2.6 °F 5.0 °F 85% 30.26 in 1.2 mi South 6.9 mph - 0.02 in Snow Light Snow
9:53 PM 9.0 °F -2.2 °F 5.0 °F 84% 30.35 in 1.0 mi South 6.9 mph - 0.02 in Snow Light Snow
10:23 PM 8.6 °F -7.0 °F 5.0 °F 85% 30.25 in 1.8 mi South 12.7 mph - 0.02 in Snow Light Snow
10:31 PM 8.6 °F -5.5 °F 3.2 °F 79% 30.25 in 2.5 mi South 10.4 mph - 0.02 in Snow Light Snow
10:53 PM 9.0 °F -7.3 °F 3.9 °F 80% 30.33 in 1.5 mi South 13.8 mph - 0.02 in Snow Light Snow
11:03 PM 8.6 °F -7.7 °F 3.2 °F 79% 30.24 in 2.0 mi South 13.8 mph - 0.00 in Snow Light Snow
11:07 PM 8.6 °F -8.3 °F 3.2 °F 79% 30.24 in 1.2 mi South 15.0 mph - 0.01 in Snow Light Snow
11:15 PM 8.6 °F -8.9 °F 3.2 °F 79% 30.23 in 0.5 mi South 16.1 mph - 0.02 in Snow Snow
11:28 PM 8.6 °F -8.3 °F 3.2 °F 79% 30.23 in 1.5 mi South 15.0 mph - 0.02 in Snow Light Snow
11:47 PM 8.6 °F -8.3 °F 3.2 °F 79% 30.21 in 2.0 mi South 15.0 mph - 0.03 in Snow Light Snow
11:48 PM 9.0 °F -7.3 °F 3.9 °F 80% 30.29 in 2.0 mi South 13.8 mph - 0.03 in Snow Light Snow
11:52 PM 8.6 °F -8.3 °F 3.2 °F 79% 30.21 in 3.0 mi South 15.0 mph - 0.00 in Snow Light Snow